Weather History for KHNB - October, 2012

Change the Weather History Date:

Sunday, October 28, 2012

  Actual Average Record
Temperature  
Mean Temperature 45 °F -  
Max Temperature 53 °F 62 °F 78 °F (1999)
Min Temperature 37 °F 44 °F 24 °F (1997)
Degree Days  
Heating Degree Days 20    
Moisture  
Dew Point 32 °F    
Average Humidity 65    
Maximum Humidity 87    
Minimum Humidity 44    
Precipitation  
Precipitation 0.00 in - - ()
Sea Level Pressure  
Sea Level Pressure 30.13 in    
Wind  
Wind Speed 9 mph (North)    
Max Wind Speed 17 mph    
Max Gust Speed 24 mph    
Visibility 10 miles    
Events      
Averages and records for this station are not official NWS values.
T = Trace of Precipitation, MM = Missing Value Source: NWS Daily Summary

Daily Weather History Graph

Daily Weather History Graph

Search for Another Location

Airport or City:

Trip Planner

Search our weather history database for the weather conditions in past years. The results will help you decide how hot, cold, wet, or windy it might be!

Date:

Astronomy

Oct. 28, 2012 Rise Set
Actual Time 8:10 AM EDT 6:52 PM EDT
Civil Twilight 7:43 AM EDT 7:19 PM EDT
Nautical Twilight 7:11 AM EDT 7:50 PM EDT
Astronomical Twilight 6:41 AM EDT 8:21 PM EDT
Moon 6:09 PM EDT (10/28) 7:03 AM EDT (10/28)
Length of Visible Light 11h 36m
Length of Day
10h 42m
Waxing Gibbous, 99% of the Moon is Illuminated
Oct 28
Waxing Gibbous
Oct 29
Full
Nov 6
Last Quarter
Nov 13
New
Nov 20
First Quarter

Hourly Weather History & Observations

Time (EDT) Temp. Windchill Dew Point Humidity Pressure Visibility Wind Dir Wind Speed Gust Speed Precip Events Conditions
12:35 AM 41.0 °F 35.8 °F 32.0 °F 70% 30.13 in 10.0 mi North 8.1 mph - N/A   Clear
12:55 AM 41.0 °F 37.1 °F 32.0 °F 70% 30.13 in 10.0 mi North 5.8 mph - N/A   Clear
1:15 AM 41.0 °F 35.8 °F 32.0 °F 70% 30.13 in 10.0 mi NNW 8.1 mph - N/A   Clear
1:55 AM 41.0 °F 36.4 °F 33.8 °F 76% 30.13 in 10.0 mi North 6.9 mph - N/A   Clear
2:15 AM 39.2 °F 34.2 °F 33.8 °F 81% 30.13 in 10.0 mi North 6.9 mph - N/A   Clear
2:35 AM 39.2 °F 33.6 °F 33.8 °F 81% 30.13 in 10.0 mi North 8.1 mph - N/A   Clear
2:55 AM 39.2 °F 33.6 °F 33.8 °F 81% 30.13 in 10.0 mi North 8.1 mph - N/A   Clear
3:15 AM 39.2 °F 33.0 °F 33.8 °F 81% 30.13 in 10.0 mi North 9.2 mph - N/A   Clear
3:35 AM 39.2 °F 33.0 °F 33.8 °F 81% 30.14 in 10.0 mi NNW 9.2 mph - N/A   Clear
3:55 AM 39.2 °F 34.2 °F 33.8 °F 81% 30.13 in 10.0 mi NNW 6.9 mph - N/A   Clear
4:15 AM 39.2 °F 33.6 °F 33.8 °F 81% 30.13 in 10.0 mi North 8.1 mph - N/A   Clear
4:35 AM 39.2 °F 34.2 °F 33.8 °F 81% 30.13 in 10.0 mi North 6.9 mph - N/A   Clear
4:55 AM 39.2 °F 33.6 °F 33.8 °F 81% 30.13 in 10.0 mi North 8.1 mph - N/A   Clear
5:35 AM 37.4 °F 32.1 °F 33.8 °F 87% 30.14 in 10.0 mi North 6.9 mph - N/A   Clear
5:55 AM 37.4 °F 31.4 °F 33.8 °F 87% 30.14 in 10.0 mi North 8.1 mph - N/A   Clear
6:15 AM 37.4 °F 30.8 °F 33.8 °F 87% 30.13 in 10.0 mi North 9.2 mph - N/A   Clear
6:35 AM 37.4 °F 32.1 °F 33.8 °F 87% 30.12 in 10.0 mi North 6.9 mph - N/A   Clear
6:55 AM 37.4 °F 32.1 °F 32.0 °F 81% 30.13 in 10.0 mi North 6.9 mph - N/A   Clear
7:15 AM 37.4 °F 34.9 °F 32.0 °F 81% 30.13 in 10.0 mi North 3.5 mph - N/A   Clear
7:35 AM 37.4 °F 32.1 °F 32.0 °F 81% 30.13 in 10.0 mi NNW 6.9 mph - N/A   Clear
7:55 AM 37.4 °F 32.1 °F 32.0 °F 81% 30.13 in 10.0 mi NNW 6.9 mph - N/A   Clear
8:15 AM 37.4 °F 32.8 °F 33.8 °F 87% 30.13 in 10.0 mi North 5.8 mph - N/A   Clear
8:35 AM 37.4 °F 32.8 °F 33.8 °F 87% 30.14 in 10.0 mi North 5.8 mph - N/A   Clear
9:15 AM 39.2 °F 34.2 °F 33.8 °F 81% 30.15 in 10.0 mi North 6.9 mph - N/A   Clear
9:35 AM 39.2 °F 34.2 °F 33.8 °F 81% 30.15 in 10.0 mi North 6.9 mph - N/A   Clear
9:55 AM 42.8 °F 38.0 °F 33.8 °F 70% 30.15 in 10.0 mi North 8.1 mph - N/A   Clear
10:15 AM 42.8 °F 37.5 °F 33.8 °F 70% 30.15 in 10.0 mi North 9.2 mph 17.3 mph N/A   Clear
10:55 AM 44.6 °F 39.2 °F 33.8 °F 66% 30.15 in 10.0 mi North 10.4 mph - N/A   Clear
11:15 AM 46.4 °F 41.5 °F 35.6 °F 66% 30.15 in 10.0 mi North 10.4 mph 17.3 mph N/A   Clear
11:35 AM 46.4 °F 41.9 °F 35.6 °F 66% 30.15 in 10.0 mi North 9.2 mph - N/A   Clear
11:55 AM 46.4 °F 40.7 °F 33.8 °F 62% 30.14 in 10.0 mi NNE 12.7 mph 16.1 mph N/A   Clear
12:15 PM 48.2 °F - 35.6 °F 62% 30.14 in 10.0 mi NNE 12.7 mph - N/A   Clear
12:35 PM 50.0 °F - 37.4 °F 62% 30.14 in 10.0 mi North 11.5 mph 19.6 mph N/A   Scattered Clouds
12:55 PM 50.0 °F - 37.4 °F 62% 30.14 in 10.0 mi NNW 10.4 mph - N/A   Overcast
1:15 PM 50.0 °F - 35.6 °F 58% 30.13 in 10.0 mi NNW 11.5 mph 18.4 mph N/A   Mostly Cloudy
1:35 PM 51.8 °F - 35.6 °F 54% 30.12 in 10.0 mi North 11.5 mph 18.4 mph N/A   Mostly Cloudy
1:55 PM 51.8 °F - 33.8 °F 50% 30.12 in 10.0 mi North 12.7 mph - N/A   Scattered Clouds
2:15 PM 51.8 °F - 33.8 °F 50% 30.11 in 10.0 mi NW 13.8 mph 19.6 mph N/A   Partly Cloudy
2:35 PM 53.6 °F - 35.6 °F 51% 30.11 in 10.0 mi North 12.7 mph 19.6 mph N/A   Clear
3:15 PM 51.8 °F - 33.8 °F 50% 30.10 in 10.0 mi NNW 17.3 mph 23.0 mph N/A   Clear
3:35 PM 51.8 °F - 33.8 °F 50% 30.10 in 10.0 mi North 15.0 mph 20.7 mph N/A   Clear
3:55 PM 51.8 °F - 33.8 °F 50% 30.10 in 10.0 mi NNW 11.5 mph 18.4 mph N/A   Clear
4:15 PM 51.8 °F - 33.8 °F 50% 30.10 in 10.0 mi North 11.5 mph - N/A   Partly Cloudy
4:35 PM 51.8 °F - 32.0 °F 47% 30.11 in 10.0 mi NNW 13.8 mph 24.2 mph N/A   Clear
4:55 PM 51.8 °F - 32.0 °F 47% 30.11 in 10.0 mi NNW 11.5 mph 20.7 mph N/A   Clear
5:15 PM 51.8 °F - 30.2 °F 44% 30.11 in 10.0 mi North 15.0 mph 20.7 mph N/A   Clear
5:35 PM 51.8 °F - 30.2 °F 44% 30.11 in 10.0 mi North 11.5 mph - N/A   Clear
5:55 PM 50.0 °F - 30.2 °F 47% 30.11 in 10.0 mi North 11.5 mph 23.0 mph N/A   Clear
6:15 PM 48.2 °F - 28.4 °F 46% 30.12 in 10.0 mi North 12.7 mph 19.6 mph N/A   Clear
6:35 PM 48.2 °F - 28.4 °F 46% 30.12 in 10.0 mi NNW 10.4 mph 16.1 mph N/A   Clear
6:55 PM 46.4 °F 40.7 °F 28.4 °F 50% 30.12 in 10.0 mi North 12.7 mph 17.3 mph N/A   Clear
7:15 PM 46.4 °F 41.1 °F 28.4 °F 50% 30.13 in 10.0 mi North 11.5 mph 16.1 mph N/A   Clear
7:35 PM 46.4 °F 42.4 °F 28.4 °F 50% 30.13 in 10.0 mi North 8.1 mph - N/A   Clear
7:55 PM 46.4 °F 41.5 °F 28.4 °F 50% 30.14 in 10.0 mi NNW 10.4 mph 19.6 mph N/A   Clear
8:15 PM 44.6 °F 39.2 °F 28.4 °F 53% 30.14 in 10.0 mi NNW 10.4 mph - N/A   Clear
8:35 PM 44.6 °F 39.7 °F 28.4 °F 53% 30.14 in 10.0 mi NNW 9.2 mph - N/A   Clear
8:55 PM 44.6 °F 39.2 °F 28.4 °F 53% 30.14 in 10.0 mi NNW 10.4 mph - N/A   Clear
9:16 PM 42.8 °F 37.5 °F 28.4 °F 57% 30.14 in 10.0 mi NNW 9.2 mph - N/A   Clear
9:35 PM 42.8 °F 38.6 °F 28.4 °F 57% 30.14 in 10.0 mi North 6.9 mph - N/A   Scattered Clouds
9:55 PM 42.8 °F 38.0 °F 28.4 °F 57% 30.15 in 10.0 mi NNW 8.1 mph - N/A   Mostly Cloudy
10:15 PM 41.0 °F 38.0 °F 28.4 °F 61% 30.15 in - NNW 4.6 mph - N/A   Overcast
10:55 PM 41.0 °F 36.4 °F 28.4 °F 61% 30.15 in 10.0 mi NNW 6.9 mph - N/A   Partly Cloudy
11:55 PM 39.2 °F 34.2 °F 28.4 °F 65% 30.14 in 10.0 mi NNW 6.9 mph - N/A   Clear